Location: PSU-Greenbush Astrophysical Observatory
(37.5140°N, 94.9880°W)
Time: 05:20:27
(UTC-06:00)

deb Explorer IX - Pass Details

Date: 26 January 2020
Orbit: 549 x 1099 km, 38.8° (Epoch: 25 February)

Event Time Altitude Azimuth Distance (km) Brightness Sun altitude
Rises 01:27:27 0° 282° (WNW) 3,896 - -67.8°
Reaches altitude 10° 01:30:13 10° 282° (WNW) 2,949 - -67.4°
Maximum altitude 01:37:34 83° 195° (SSW) 1,086 - -66.5°
Drops below altitude 10° 01:44:29 10° 109° (ESE) 2,785 - -65.6°
Sets 01:47:02 0° 108° (ESE) 3,669 - -65.2°
